Thunder Bay, Ontario

10:04 AM EDT on April 25, 2018 (GMT -0400)
Thunder Bay

Weather History for CYQT - November, 2012

Change the Weather History Date:

Thursday, November 29, 2012

  Actual Average Record
Temperature  
Mean Temperature 12 °F -  
Max Temperature 15 °F -17 °F 41 °F (1998)
Min Temperature 10 °F -30 °F 0 °F (2013)
Degree Days  
Heating Degree Days 52    
Moisture  
Dew Point 7 °F    
Average Humidity 72    
Maximum Humidity 93    
Minimum Humidity 56    
Precipitation  
Precipitation 0.00 in 0.01 in - ()
Sea Level Pressure  
Sea Level Pressure 30.33 in    
Wind  
Wind Speed 4 mph ()    
Max Wind Speed 8 mph    
Max Gust Speed -    
Visibility 16.0 miles    
Events Snow    
Averages and records for this station are not official NWS values.
T = Trace of Precipitation, MM = Missing Value Source: Averaged Metar Reports

Daily Weather History Graph

Daily Weather History Graph

Search for Another Location

Airport or City:

Astronomy

Nov. 29, 2012 Rise Set
Actual Time 8:25 AM EST 5:05 PM EST
Civil Twilight 7:49 AM EST 5:41 PM EST
Nautical Twilight 7:10 AM EST 6:20 PM EST
Astronomical Twilight 6:33 AM EST 6:58 PM EST
Moon 6:08 PM EST (11/29) 9:12 AM EST (11/29)
Length of Visible Light 9h 51m
Length of Day
8h 40m
Full, 99% of the Moon is Illuminated
Nov 29
Full
Dec 6
Last Quarter
Dec 13
New
Dec 20
First Quarter
Dec 28
Full

Hourly Weather History & Observations

Time (EST) Temp. Windchill Dew Point Humidity Pressure Visibility Wind Dir Wind Speed Gust Speed Precip Events Conditions
12:00 AM 19.4 °F 14.3 °F 17.6 °F 93% 30.14 in 10.0 mi West 3.5 mph - N/A Snow Light Snow
12:36 AM 21.2 °F 13.6 °F 17.6 °F 86% 30.16 in 15.0 mi WNW 5.8 mph - N/A   Overcast
1:00 AM 20 °F - 16 °F 77% 30.17 in 10 mi NW 4.6 mph - - Snow Light Snow
1:00 AM 19.4 °F 14.3 °F 15.8 °F 86% 30.17 in 15.0 mi NW 3.5 mph - N/A   Overcast
2:00 AM 19.4 °F 11.5 °F 14.0 °F 80% 30.19 in 15.0 mi North 5.8 mph - N/A   Overcast
3:00 AM 17.6 °F 7.3 °F 10.4 °F 73% 30.23 in 15.0 mi North 8.1 mph - N/A   Overcast
4:00 AM 15.8 °F 10.2 °F 8.6 °F 73% 30.24 in 15.0 mi North 3.5 mph - N/A   Mostly Cloudy
5:00 AM 14.0 °F 8.2 °F 6.8 °F 73% 30.25 in 15.0 mi NNE 3.5 mph - N/A   Partly Cloudy
6:00 AM 12.2 °F 4.3 °F 6.8 °F 79% 30.29 in 15.0 mi North 4.6 mph - N/A   Mostly Cloudy
7:00 AM 13 °F - 6 °F 64% 30.31 in 10 mi NNE 6.9 mph - -   Overcast
7:00 AM 14.0 °F 2.9 °F 6.8 °F 73% 30.31 in 15.0 mi NNE 8.1 mph - N/A   Mostly Cloudy
8:00 AM 12.2 °F 1.7 °F 3.2 °F 67% 30.33 in 20.0 mi NNW 6.9 mph - N/A   Mostly Cloudy
9:00 AM 10.4 °F 0.8 °F 3.2 °F 73% 30.34 in 20.0 mi NW 5.8 mph - N/A   Mostly Cloudy
10:00 AM 12.2 °F 4.3 °F 3.2 °F 67% 30.36 in 20.0 mi NNE 4.6 mph - N/A   Mostly Cloudy
10:21 AM 12.2 °F - 3.2 °F 67% 30.37 in 20.0 mi Calm Calm - N/A   Mostly Cloudy
11:00 AM 12.2 °F 6.1 °F 3.2 °F 67% 30.37 in 20.0 mi NW 3.5 mph - N/A   Mostly Cloudy
12:00 PM 14.0 °F 8.2 °F 5.0 °F 67% 30.39 in 20.0 mi NW 3.5 mph - N/A   Mostly Cloudy
1:00 PM 14 °F - 5 °F 56% 30.38 in 10 mi NE 5.8 mph - -   Overcast
1:00 PM 14.0 °F 5.1 °F 5.0 °F 67% 30.38 in 20.0 mi NE 5.8 mph - N/A   Overcast
2:00 PM 14.0 °F - 5.0 °F 67% 30.37 in 20.0 mi Calm Calm - N/A   Mostly Cloudy
3:00 PM 15.8 °F - 5.0 °F 62% 30.37 in 20.0 mi South 2.3 mph - N/A   Mostly Cloudy
4:00 PM 14.0 °F 8.2 °F 5.0 °F 67% 30.39 in 20.0 mi NE 3.5 mph - N/A   Mostly Cloudy
5:00 PM 14.0 °F 8.2 °F 5.0 °F 67% 30.40 in 20.0 mi NNE 3.5 mph - N/A   Mostly Cloudy
6:00 PM 14.0 °F 6.5 °F 5.0 °F 67% 30.42 in 15.0 mi North 4.6 mph - N/A   Mostly Cloudy
7:00 PM 14 °F - 7 °F 63% 30.44 in 10 mi NNE 6.9 mph - -   Overcast
7:00 PM 14.0 °F 3.9 °F 6.8 °F 73% 30.44 in 15.0 mi NNE 6.9 mph - N/A   Overcast
8:00 PM 14.0 °F 5.1 °F 6.8 °F 73% 30.45 in 15.0 mi NNE 5.8 mph - N/A   Overcast
9:00 PM 14.0 °F 2.9 °F 6.8 °F 73% 30.46 in 15.0 mi NNE 8.1 mph - N/A   Overcast
10:00 PM 14.0 °F 2.9 °F 6.8 °F 73% 30.46 in 15.0 mi NNE 8.1 mph - N/A   Overcast
11:00 PM 14.0 °F 5.1 °F 6.8 °F 73% 30.45 in 15.0 mi North 5.8 mph - N/A   Overcast